Погода в Синтре

Португалия     38°48′25″N   9°22′37″W
темп.,
°C
ветер,
м/с
пор.,
м/с
влажн.,
%
обл.,
%
осадки,
мм/ч
давл.,
гПа
погр.,
м
20 июня, вс
вс2001:00+16юз688186 0.0 1016693
04:00+17ююз81092100 0.2 1014629
07:00+17юз71197100 1.1 1013397
10:00+17сз79915 1.3 1014424
13:00+17зсз57800 1.3 1014697
16:00+17з687854 0.0 1014700
19:00+18зсз7971100 0.1 1014676
22:00+17з687199 0.1 1015358
21 июня, пн
пн2101:00+17з6878100 0.3 1014406
04:00+17з6983100 0.3 1013447
07:00+17зсз6987100 0.7 1014495
10:00+17сз68874 0.6 1015577
13:00+17сз56835 0.6 1016504
16:00+17сз78841 0.1 1016644
19:00+17ссз78841 0.1 1016695
22:00+17ссз79870 0.0 1018535
22 июня, вт
вт2201:00+16ссз79880 0.0 1018635
04:00+16ссз810880 0.0 1017678
07:00+17с911878 0.1 1017772
10:00+17ссз10118424 0.1 1018853
13:00+17ссз1012822 0.1 1019777
16:00+17ссз1114843 0.0 1019738
19:00+17с1215848 0.0 1018781
22:00+16с1216840 0.0 1019709
23 июня, ср
ср2301:00+16с1215861 0.0 1019627
04:00+16с1114871 0.0 1018597
07:00+16с1113886 0.0 1018606
10:00+17с911842 0.0 1018547
13:00+17ссз910836 0.0 1018382
16:00+17ссз101282100 0.0 1017273
19:00+17с10148457 0.0 1017326
22:00+17с9148820 0.0 1018342
24 июня, чт
чт2401:00+17с8129012 0.0 1017296
04:00+17с711920 0.0 1016270
07:00+17с67930 0.0 1016195
10:00+19с45814 0.0 1017143
13:00+20ссз67778 0.0 1017134
16:00+19ссз78797 0.0 1016159
19:00+19с710822 0.0 1016181
22:00+18с69890 0.0 1017155